Voltar ao catálogo

STARLINK-36894

AtivoComunicaçõesSSO
NORAD 67972·PAYLOAD·🇺🇸 United States

Lançado Feb 25, 2026 de Vandenberg Space Force Base

Loading…

Próximas Passagens (próximas 24 horas)

TLE

AtualizadoSource: CelesTrak SupGP

Época: Sep 14, 2026, 21:35 UTC

1 67972C 26038M   26257.89979167  .00035133  00000+0  10906-2 0  2577
2 67972  97.2849 266.3255 0001659  88.4396 334.3627 15.33421001    19

Acompanhe STARLINK-36894 em tempo real com AllMySat

Download on the App Store